Wind_Speed
29 30 27 24 23 24 26 26 25 25 24 26 29 27 23 20 17 15 14 13 12 13 15 15 15 13 11 11 16 20 23 23 21 20 19 18 17 16 15 15 15 16 14 12 11 11 10 9 9 9 10 11 10 10 9 8 7 7 6 5 4 4 5 6 5 6 6 6 6 7 8 7 5 5 5 4 4 4 4 4 4 3 3 3 3
29 28 27 24 23 25 27 28 28 26 25 28 29 26 21 18 16 14 14 14 13 14 17 18 17 16 13 12 13 16 20 23 23 22 21 19 18 18 17 16 14 14 13 12 11 12 10 9 10 10 11 11 11 11 9 8 7 6 6 5 5 6 6 7 7 7 7 6 7 8 8 8 7 6 6 5 5 5 4 4 4 4 4 4 5
35 29 28 28 26 26 28 29 28 27 27 30 29 24 20 18 15 15 15 15 15 15 17 19 19 18 17 15 13 13 17 23 24 23 22 22 21 20 20 18 16 14 14 13 11 11 10 10 11 11 11 12 12 12 10 9 8 7 6 6 6 6 7 8 8 8 7 7 8 8 8 8 8 7 7 6 6 6 6 5 5 5 5 5 6
38 33 28 30 29 27 28 27 27 27 27 31 31 25 20 18 16 15 16 17 16 16 17 18 19 20 19 18 17 15 17 22 25 24 23 23 22 20 20 19 16 15 14 13 11 11 11 11 12 12 12 13 13 13 11 10 9 8 7 7 7 7 8 9 9 9 8 8 8 9 9 9 9 9 9 9 8 7 7 6 6 6 6 6 8
37 36 30 28 29 30 31 28 27 28 27 29 32 27 23 21 17 16 17 18 18 18 19 19 20 20 20 20 20 17 17 20 24 24 23 23 22 20 21 19 16 15 14 13 12 12 12 12 13 13 13 14 14 13 12 11 11 9 9 8 8 8 8 9 10 10 9 9 9 9 9 9 10 10 10 10 9 8 8 8 7 8 8 8 9
33 37 34 31 30 32 33 30 27 28 29 30 32 28 24 19 15 16 18 19 19 20 21 21 19 18 19 21 20 17 18 20 22 24 23 22 22 21 21 19 16 14 13 13 13 13 13 13 13 13 14 14 14 13 13 13 12 10 10 9 9 9 9 10 11 10 10 10 9 9 9 9 9 10 10 10 9 9 9 8 8 9 9 9 10
32 37 36 33 32 32 34 32 27 26 29 31 32 29 22 16 16 18 19 19 20 20 22 22 19 18 18 20 19 17 20 22 23 24 22 21 21 20 21 19 16 14 13 13 13 13 13 13 13 13 13 14 14 13 14 13 12 11 11 10 10 9 10 10 10 10 11 10 9 9 10 10 9 9 10 9 9 9 8 9 9 9 9 9 9
31 35 37 34 32 32 33 33 28 27 30 31 32 28 19 16 19 20 20 20 20 20 22 22 21 18 16 17 19 20 22 24 24 24 21 20 20 20 20 19 16 14 12 12 12 13 13 12 12 13 13 14 14 14 14 14 13 12 11 11 10 10 9 10 10 11 11 10 9 10 10 10 10 10 10 10 9 9 8 9 9 9 9 9 9
28 30 34 34 33 32 31 32 29 29 31 30 29 26 19 19 21 23 24 22 20 20 21 21 21 20 18 17 18 21 23 25 25 23 20 20 20 20 20 19 15 11 10 10 11 12 13 12 12 12 13 14 14 14 14 14 13 12 11 11 11 11 10 10 11 12 12 10 10 10 10 11 11 11 10 10 10 9 9 9 9 9 9 9 9
28 27 31 30 29 29 30 32 30 30 30 28 27 24 22 22 24 26 27 25 22 21 19 18 19 21 20 18 18 20 22 25 23 19 19 20 20 19 19 18 13 8 8 10 11 13 14 13 12 12 13 13 13 13 13 13 12 11 11 11 11 12 11 11 12 13 12 11 10 10 10 11 12 11 10 10 10 10 9 9 9 9 10 10 10
32 31 32 27 24 27 31 33 31 30 29 28 26 25 24 22 22 24 26 24 22 22 21 17 17 20 19 17 18 19 19 21 20 18 19 19 19 18 18 17 10 6 8 10 12 15 15 14 13 12 13 12 12 12 12 12 11 11 11 11 12 13 13 12 13 13 13 12 10 10 10 11 12 12 10 9 10 10 9 9 10 10 10 11 12
34 33 32 28 28 31 35 35 33 32 29 27 28 26 24 21 19 21 22 21 22 24 24 19 16 19 18 14 16 18 18 19 19 19 20 20 20 19 18 15 10 9 11 12 14 16 16 15 13 12 12 13 13 12 12 11 11 12 12 12 13 14 14 14 14 14 14 12 10 10 10 11 12 11 10 10 10 10 10 10 11 11 12 12 13
32 30 28 27 30 34 36 36 34 32 30 30 30 27 23 20 18 18 18 18 20 21 23 21 18 17 17 14 15 17 19 20 21 21 22 23 22 21 20 15 11 11 12 13 15 17 18 16 14 14 13 13 13 13 13 13 12 13 14 14 15 15 14 14 14 14 13 12 10 10 10 11 11 11 10 11 12 12 12 12 12 12 13 12 11
28 26 25 26 27 29 32 31 28 29 32 32 30 27 22 17 16 17 16 17 18 17 19 20 19 17 16 15 15 17 20 22 23 23 25 27 26 23 21 15 12 11 11 12 15 17 18 17 16 15 14 14 14 14 14 14 13 14 14 15 15 15 15 14 13 13 12 11 10 10 10 10 11 11 12 12 13 13 13 13 11 10 10 9 9
27 26 26 26 25 25 27 27 24 25 30 31 27 23 20 16 15 16 15 15 16 15 16 18 19 17 15 15 17 19 21 22 25 26 29 31 29 25 19 14 11 10 10 11 13 16 17 18 17 17 16 15 15 15 15 14 14 14 15 16 16 16 16 15 14 13 12 12 11 12 11 11 11 12 13 13 13 12 11 10 9 8 7 8 9
28 28 27 26 21 18 20 23 23 22 24 26 23 21 18 16 16 17 15 14 14 16 17 17 17 16 15 15 17 20 21 21 23 25 30 32 28 22 16 13 12 11 11 11 12 15 17 18 18 18 17 17 17 16 15 14 15 15 16 17 17 18 17 16 15 14 14 14 13 13 13 12 12 12 13 13 12 11 9 8 7 7 7 8 9
24 24 24 22 19 15 15 17 20 21 20 21 20 18 16 16 18 16 13 13 15 17 19 18 17 15 15 17 18 20 21 19 16 16 22 26 24 18 13 12 13 13 12 12 13 14 16 18 19 19 18 17 17 16 15 15 15 16 18 18 18 18 18 17 17 16 15 15 14 14 13 12 12 12 13 13 11 9 9 7 7 8 8 9 9
18 20 20 20 20 20 18 15 17 19 17 17 18 17 16 18 18 16 15 16 18 19 20 20 18 17 17 18 19 19 19 18 15 12 14 19 20 15 12 13 13 13 13 13 14 14 15 17 18 20 20 19 17 16 17 17 18 19 19 19 18 17 17 18 17 16 15 14 14 13 12 12 13 13 13 11 9 9 8 7 8 8 8 9 8
20 20 19 18 18 20 20 18 19 19 17 15 16 16 17 18 17 17 18 20 21 22 23 23 21 19 18 18 18 18 18 18 18 15 15 19 18 13 11 13 13 14 15 14 14 15 15 16 17 20 22 21 19 19 20 21 21 21 20 19 18 17 16 16 16 15 14 13 13 12 12 13 13 13 12 10 9 9 8 7 7 7 8 9 8
22 22 21 19 18 19 19 19 19 20 20 19 19 19 20 20 17 19 22 23 23 24 26 25 24 21 19 17 17 18 19 19 18 16 16 19 18 13 12 13 15 16 16 15 15 15 14 15 16 20 22 23 22 21 21 21 21 21 20 19 18 17 16 15 14 14 13 12 12 12 12 12 11 10 10 9 9 9 8 7 7 7 8 9 9
23 23 23 20 19 20 21 20 19 20 21 21 22 24 24 24 23 24 26 27 27 28 27 25 23 22 19 16 16 18 19 20 20 18 16 18 19 17 14 14 16 19 18 17 16 15 15 15 16 19 21 22 21 20 20 20 21 20 20 19 17 16 15 13 13 13 12 12 11 11 11 10 9 9 9 10 9 8 7 7 8 8 9 10 11
23 24 24 22 22 22 22 22 20 21 22 24 26 28 29 30 30 29 30 32 31 28 26 24 24 23 20 16 16 17 19 20 21 21 19 20 21 19 17 15 17 20 19 17 16 17 17 17 17 18 20 20 20 19 20 20 20 20 20 19 17 16 14 13 13 13 12 12 11 10 11 10 9 9 10 10 10 8 8 8 8 9 11 13 12
23 25 24 23 23 24 24 24 23 23 24 25 29 33 33 32 32 30 30 31 29 26 25 24 23 23 20 17 16 17 18 19 21 22 22 21 22 21 19 18 19 20 19 18 17 18 19 19 19 20 21 21 21 20 20 20 20 20 19 18 17 16 15 14 14 13 12 12 12 12 13 12 12 12 12 11 11 10 10 10 10 11 13 15 13
22 24 25 25 25 25 26 26 25 25 26 28 31 34 33 31 32 31 29 28 27 27 27 26 24 22 20 17 17 18 19 20 21 22 23 23 23 22 21 19 20 21 21 20 20 20 20 21 22 22 22 22 22 22 21 20 20 20 19 18 18 17 15 15 15 14 14 14 14 14 15 16 15 15 14 13 13 13 13 12 12 14 16 16 15
23 24 25 27 27 28 29 29 29 29 30 31 34 35 33 30 29 29 29 29 29 27 27 26 24 22 20 18 18 20 21 22 22 23 24 24 23 22 20 19 20 21 21 22 22 22 22 23 24 24 24 24 24 23 22 21 21 21 20 19 19 18 17 16 16 16 16 17 17 16 17 18 17 17 16 16 16 16 15 13 14 16 18 18 18
25 25 26 27 28 30 32 32 33 34 34 36 37 36 33 31 29 28 28 30 31 30 27 26 25 23 21 20 20 21 22 24 24 23 24 25 22 20 20 20 21 22 22 22 22 22 23 24 24 24 24 24 23 22 22 22 22 22 21 20 19 18 18 18 17 17 18 19 19 19 19 20 20 19 18 17 18 19 17 16 17 18 19 21 21
26 27 27 27 28 30 33 34 35 36 37 39 39 36 34 35 35 34 32 32 32 30 27 27 28 27 24 22 21 21 22 24 25 25 24 23 22 21 21 21 22 23 23 22 22 21 22 22 23 23 22 21 21 22 23 24 24 23 22 20 20 20 19 19 18 18 19 20 21 21 21 21 22 22 20 19 20 20 20 19 19 20 22 23 23
26 27 28 28 29 30 32 34 36 38 39 41 40 37 36 36 36 36 36 36 34 31 28 27 28 28 26 24 23 23 20 18 21 25 22 20 20 21 22 23 24 24 23 22 21 21 21 21 21 21 20 21 22 24 24 24 24 24 23 22 21 21 20 20 20 20 21 22 23 23 23 22 22 23 22 21 21 22 22 21 22 23 24 24 25
25 26 28 29 30 32 33 34 36 38 40 42 41 39 37 36 36 37 38 38 38 35 32 29 27 27 27 25 24 24 22 18 18 23 22 19 19 20 22 23 24 25 23 21 21 21 21 21 21 19 19 21 23 23 24 24 24 24 23 22 21 21 21 22 22 22 23 24 24 24 23 23 23 23 23 23 23 24 24 24 25 26 26 25 26
24 26 27 29 30 32 33 35 37 38 40 41 42 41 40 38 37 38 40 40 40 39 36 33 30 28 26 25 24 24 24 22 21 23 24 23 21 21 21 22 24 25 24 23 22 22 22 22 20 18 18 20 22 22 23 23 23 23 22 21 21 21 21 22 23 23 24 25 25 25 24 24 24 25 24 25 25 26 27 27 28 29 29 28 28
22 24 26 27 29 31 32 34 35 36 37 39 40 40 39 38 38 39 40 40 40 39 36 33 30 29 27 25 25 25 24 24 24 24 25 25 24 23 22 22 23 24 25 24 24 24 24 22 20 19 19 21 21 22 22 22 22 22 21 21 22 23 23 24 25 25 25 26 26 25 25 25 25 25 25 26 27 28 29 29 29 30 31 30 30
21 22 23 24 25 27 28 30 31 32 34 35 36 37 36 35 36 37 38 38 38 37 35 33 30 29 30 28 27 26 25 24 25 24 24 25 25 24 24 24 23 24 25 25 26 25 24 23 23 23 23 22 23 23 23 23 23 23 22 22 23 24 25 25 26 27 27 27 27 26 26 26 27 27 27 28 29 29 30 30 30 31 32 32 32
21 21 22 22 22 23 24 26 27 29 31 32 33 34 34 33 34 36 37 37 37 36 34 33 32 30 29 27 26 24 23 22 24 23 23 25 24 24 26 25 24 25 27 27 26 24 23 25 27 27 26 25 26 26 26 25 25 23 22 23 24 24 25 26 27 28 29 28 28 28 28 28 29 29 29 29 29 30 30 31 31 32 32 33 33
21 22 21 21 22 22 23 25 25 27 29 30 31 31 31 32 33 34 34 33 35 37 33 31 34 33 28 26 25 24 21 22 24 23 23 24 24 24 26 25 25 26 27 28 26 24 26 28 29 28 28 28 27 27 27 27 26 25 24 24 25 25 25 27 27 28 29 30 30 30 30 31 31 30 29 29 30 30 31 31 32 32 33 33 34
21 22 22 22 22 23 23 24 25 25 26 27 28 28 28 29 29 29 28 26 31 38 36 31 33 31 26 24 26 26 25 25 26 25 23 23 25 26 26 26 26 26 26 27 27 27 28 28 28 28 29 29 28 27 27 27 28 27 27 26 26 27 28 28 28 27 29 30 30 31 31 31 31 30 29 30 30 30 30 31 32 33 33 33 34
21 23 23 23 24 24 24 25 25 24 23 24 25 24 24 25 24 22 23 26 31 34 32 29 29 26 22 21 24 25 25 26 26 25 24 23 24 26 26 26 27 27 26 26 27 28 28 27 27 28 29 31 31 30 29 30 31 31 30 29 28 28 29 29 29 29 29 29 29 30 31 32 31 30 30 31 31 31 31 32 33 34 34 34 35
22 23 23 24 24 24 24 25 25 24 23 23 23 22 21 21 19 18 20 26 30 27 23 26 31 32 28 25 26 28 27 27 27 28 27 26 26 27 28 27 27 27 27 26 26 27 27 27 27 27 28 30 31 30 31 33 34 34 34 32 31 30 30 30 30 30 30 30 30 31 32 32 31 30 31 31 32 32 34 34 35 35 36 37 37
22 22 23 24 24 24 25 26 25 24 24 23 23 23 21 19 19 18 17 19 23 21 18 22 29 33 29 25 28 32 32 31 32 32 31 30 29 30 29 28 26 26 26 26 25 26 26 27 28 28 28 29 29 28 29 31 33 35 35 34 33 31 30 30 31 31 31 32 33 33 33 32 31 31 31 32 33 35 36 37 37 38 39 40 40
24 23 23 23 24 25 25 25 25 24 25 24 23 23 23 21 20 21 19 15 16 20 20 20 24 29 29 28 30 32 33 34 34 34 34 33 32 30 29 28 27 27 26 25 25 27 27 27 28 27 27 27 26 27 29 30 32 34 35 35 34 31 30 31 32 32 33 33 34 33 33 32 31 32 33 34 35 37 38 39 40 40 41 42 43
26 25 24 24 24 25 25 25 24 24 25 25 24 23 23 23 22 21 20 17 14 17 22 24 26 28 30 31 32 32 32 33 34 34 34 35 34 32 31 30 28 28 27 26 27 29 29 27 25 24 24 24 23 25 28 30 31 33 35 34 33 32 32 32 33 34 34 33 33 32 32 32 33 34 36 37 38 39 40 41 42 42 44 44 44
27 27 26 26 25 25 26 26 25 24 25 25 25 24 22 22 22 20 19 17 15 14 15 19 23 27 30 33 35 36 35 35 34 32 32 32 32 33 33 31 28 26 26 25 26 28 27 26 25 25 25 25 25 25 26 29 31 33 34 34 34 34 33 33 35 36 36 35 34 32 32 34 36 37 38 39 41 42 43 44 44 45 45 46 46
28 27 26 26 25 24 26 27 26 25 25 25 25 24 22 22 21 20 19 17 15 14 13 12 14 18 22 25 30 35 36 33 29 27 27 28 30 31 31 30 27 25 25 25 26 27 27 27 27 27 28 28 27 26 26 27 28 31 32 34 36 36 35 34 35 37 38 37 36 34 34 36 37 39 40 42 43 44 44 44 45 45 46 46 46
28 28 27 27 26 25 25 26 26 25 25 25 24 23 22 22 22 21 20 19 18 17 17 15 13 14 15 17 20 25 28 27 26 25 25 27 28 28 27 26 26 26 27 27 28 28 28 28 28 28 28 27 27 26 26 27 28 30 32 35 36 37 37 36 36 38 39 38 37 37 37 38 39 40 41 42 43 45 45 44 44 43 44 45 46
29 29 28 28 27 26 26 26 25 24 24 25 24 23 22 22 22 22 21 20 20 20 21 22 21 20 19 19 19 20 21 22 23 24 25 25 25 25 23 23 25 27 28 29 29 29 29 28 27 27 27 26 25 25 26 27 29 30 32 34 35 37 37 37 37 38 38 37 37 38 39 40 41 43 43 43 44 46 47 47 47 47 47 49 50
29 29 28 27 28 28 27 26 25 23 22 23 23 23 22 22 23 23 22 21 21 21 22 23 24 23 22 22 22 22 23 24 25 25 26 26 25 25 23 23 24 26 27 29 30 30 30 29 29 28 28 27 27 26 26 27 29 30 31 31 32 34 35 35 37 38 39 40 41 43 43 44 45 47 48 49 50 50 51 51 51 52 53 54 55
28 28 27 27 29 30 29 28 27 25 22 22 23 24 23 24 26 25 24 24 24 24 24 25 25 24 24 23 23 23 25 26 28 28 29 29 29 28 28 29 29 29 30 31 31 31 32 32 32 32 32 31 30 30 30 31 32 32 33 33 34 35 36 37 38 40 41 43 44 45 46 46 48 49 50 51 52 53 53 54 54 55 55 56 56
29 29 29 30 32 32 31 30 29 28 26 24 25 28 30 31 31 29 26 26 27 27 27 27 27 27 26 26 25 25 26 27 28 30 31 32 32 31 32 32 33 34 35 34 34 34 35 35 36 36 35 35 34 34 34 35 35 36 36 36 37 38 38 39 40 41 43 44 45 46 47 48 49 50 51 51 52 53 53 54 54 55 56 56 57
29 29 30 31 31 31 31 31 31 30 29 28 27 29 31 33 34 32 29 27 27 28 30 30 31 31 30 29 28 28 28 28 29 30 32 33 34 35 34 34 35 36 36 36 36 37 37 38 39 39 38 37 36 36 36 36 37 38 38 39 40 40 41 42 43 44 45 47 48 49 49 50 51 51 51 52 52 53 54 54 55 57 58 60 61
28 28 29 29 29 29 30 31 32 32 32 31 31 31 31 32 33 34 34 32 31 31 31 32 33 34 34 32 30 30 30 30 30 30 31 33 34 35 34 34 35 36 37 37 37 38 38 39 40 40 39 38 37 37 37 38 39 40 40 41 42 43 43 44 45 46 47 47 48 49 49 50 50 51 52 53 54 55 56 58 59 61 62 64 65
27 27 28 28 28 28 29 29 30 31 31 32 33 33 33 34 34 34 35 35 35 34 34 33 34 35 36 34 33 33 33 33 33 33 33 34 35 35 35 35 36 37 38 39 39 40 41 41 41 41 41 40 40 39 39 39 40 40 41 42 42 43 43 44 45 45 46 47 48 49 50 51 52 53 54 55 57 58 59 61 62 64 65 66 67
25 26 27 27 28 28 29 30 30 31 31 31 31 32 32 33 33 33 34 34 35 35 35 35 35 36 36 36 36 36 36 37 37 38 38 39 40 40 40 40 40 41 41 42 43 43 44 44 44 43 42 42 41 41 40 40 39 40 40 41 41 42 43 43 44 45 46 47 49 50 51 53 54 55 56 57 59 60 61 62 64 65 66 67 67
Wind_Direction
260 252 260 272 268 266 269 270 269 269 272 274 276 275 276 280 281 279 274 270 266 261 258 255 259 269 274 258 246 241 241 242 239 242 247 237 228 235 238 237 239 238 238 238 238 238 234 230 216 201 202 204 210 216 212 207 201 199 205 215 236 253 265 275 280 279 281 285 286 286 285 290 295 295 293 291 292 299 305 308 303 298 307 318 326
260 254 264 277 274 267 267 264 261 263 268 272 274 272 270 274 273 265 262 257 250 248 250 250 248 246 245 247 256 253 245 242 241 241 243 238 237 243 243 240 229 223 236 241 236 240 238 231 221 209 207 209 214 220 218 215 212 210 217 231 251 262 271 277 273 273 275 276 279 278 282 290 292 290 285 279 278 280 282 287 288 298 310 316 319
269 264 267 277 276 268 264 262 262 262 266 272 274 269 267 268 264 255 252 248 241 237 238 241 241 236 233 237 252 262 252 243 238 238 239 239 246 247 236 227 215 214 237 241 233 243 245 236 226 214 212 214 218 223 221 222 226 227 232 246 258 264 271 273 268 268 270 269 268 268 273 280 281 279 276 272 274 276 279 283 289 300 308 311 312
268 267 266 270 271 269 266 264 264 262 264 271 268 261 258 256 251 247 245 244 242 237 233 237 241 238 237 241 247 252 251 240 232 235 242 243 246 239 224 222 219 217 232 236 230 239 241 236 228 220 219 219 220 225 226 229 236 238 241 251 260 264 268 269 265 260 262 261 257 256 260 268 271 268 267 270 271 272 276 280 288 297 301 306 308
262 263 262 263 266 269 269 266 263 264 265 261 255 251 248 245 242 241 244 251 256 253 248 247 248 245 243 246 246 244 243 237 232 236 243 242 240 232 224 225 221 215 227 235 233 234 233 230 226 223 223 223 223 226 229 234 239 241 243 248 256 259 259 263 260 256 258 258 253 251 253 261 264 262 261 265 269 271 273 274 280 290 298 306 310
263 261 258 257 261 266 268 268 263 263 262 251 245 246 246 247 250 252 259 268 271 270 267 262 255 250 248 244 242 240 234 232 234 239 242 239 236 232 229 226 220 221 232 237 237 236 229 224 222 223 225 227 227 226 229 233 236 240 243 246 252 253 253 256 257 257 258 255 251 248 251 257 260 258 256 258 265 269 271 274 278 286 295 303 309
258 258 256 253 257 262 264 266 262 257 254 247 244 244 244 253 261 262 270 275 274 275 276 271 262 259 257 245 241 239 232 233 236 237 239 238 234 230 225 223 223 226 232 236 238 234 226 220 220 223 225 226 227 227 230 232 232 237 241 246 252 253 255 258 258 259 259 254 247 244 249 255 257 255 255 257 261 263 268 276 277 282 291 298 306
255 254 254 250 249 255 260 263 262 257 253 247 246 247 245 251 252 251 260 266 268 270 274 272 265 262 264 251 242 238 235 237 235 230 235 239 234 229 224 224 227 226 229 236 237 231 225 220 218 223 227 227 227 229 230 230 231 234 239 248 255 256 254 256 258 257 255 252 246 247 252 254 255 255 258 261 263 266 271 273 274 281 289 294 303
261 254 256 252 248 254 259 261 260 258 256 250 249 253 254 257 254 249 251 256 262 268 273 274 265 261 268 262 247 241 238 236 228 225 238 243 234 228 226 225 223 220 229 239 236 230 225 221 220 224 229 229 229 229 229 230 232 236 241 249 257 259 251 247 253 256 256 257 255 256 257 255 256 258 260 264 265 269 270 268 274 283 288 291 297
263 257 257 254 252 258 259 259 261 258 254 250 249 250 251 256 257 252 249 250 256 264 267 271 265 257 263 261 250 252 246 231 223 229 245 245 231 224 224 220 213 211 232 238 232 226 222 220 221 224 229 231 232 233 233 233 237 243 251 255 260 262 255 250 259 263 262 264 263 261 260 257 258 257 257 262 267 271 271 269 277 285 284 287 295
260 258 256 252 252 259 257 255 257 252 246 244 246 244 241 246 253 254 251 247 250 254 254 263 265 253 255 257 250 259 253 232 227 238 246 239 224 218 217 215 216 232 240 233 225 221 219 218 220 224 229 234 237 241 243 244 247 253 260 263 264 264 260 258 262 261 261 263 261 257 257 260 263 262 259 262 267 273 276 276 282 288 287 291 299
255 258 260 259 258 258 256 255 255 253 249 246 245 242 235 235 245 256 256 246 243 247 251 264 269 250 249 259 256 258 254 239 233 239 241 233 220 214 210 212 233 250 241 231 221 216 215 217 220 224 226 228 232 238 243 247 251 257 262 263 263 265 263 259 257 256 259 262 258 252 253 258 263 264 262 263 268 274 277 279 285 291 291 295 300
252 257 260 259 256 253 254 259 260 256 250 245 240 236 231 228 236 253 259 248 242 247 254 264 271 253 242 254 263 261 254 243 237 240 240 233 221 210 205 216 243 246 235 230 221 215 214 215 219 223 224 224 226 231 236 239 245 255 262 262 261 262 262 258 255 255 259 260 255 248 250 254 258 263 263 265 270 275 277 279 284 290 292 297 304
249 250 252 254 257 257 258 261 259 251 243 240 237 232 230 226 230 246 256 251 248 256 261 265 269 257 243 249 257 257 253 246 245 246 243 237 225 209 206 222 241 236 230 228 222 218 216 215 218 222 224 226 228 231 235 239 246 255 261 263 262 262 260 258 255 255 256 258 252 246 249 253 258 264 266 267 272 275 277 280 285 291 295 304 314
246 240 243 253 262 263 261 262 261 254 247 243 238 232 231 229 230 241 254 257 258 266 268 265 266 257 249 255 253 252 253 252 253 251 246 241 226 208 208 225 234 230 229 226 222 221 219 219 221 222 226 230 231 233 237 243 251 257 261 264 264 262 260 258 256 255 255 255 251 250 257 262 263 266 268 269 273 274 277 280 285 294 301 311 317
242 241 244 253 260 258 257 255 251 249 250 246 234 227 230 230 232 239 248 259 268 275 271 264 262 255 253 260 261 259 259 259 259 252 244 237 222 207 209 220 228 234 234 232 230 227 225 224 223 223 228 232 233 235 240 245 252 258 261 263 263 263 261 259 256 255 256 256 257 259 264 266 264 265 267 270 273 276 279 280 284 297 307 309 312
243 249 255 261 264 262 259 251 240 238 246 245 232 227 232 233 235 241 253 268 276 277 272 264 259 254 252 258 264 268 266 262 262 251 235 225 217 212 213 216 226 234 234 236 237 235 233 231 228 226 228 233 236 238 243 249 254 258 261 261 260 259 258 258 257 256 258 259 260 261 262 262 261 260 261 265 270 274 280 285 289 297 304 305 307
254 255 261 265 265 263 263 258 248 243 246 245 236 231 234 238 243 251 262 273 276 271 266 261 256 250 250 257 263 271 271 260 254 250 233 222 220 220 222 227 232 234 236 238 240 242 243 241 235 229 228 233 237 241 247 253 255 256 257 256 255 254 254 256 256 257 259 260 259 257 258 259 259 257 256 257 260 266 275 288 293 296 300 300 302
258 253 257 260 256 257 260 257 255 255 255 255 249 242 242 246 252 255 256 262 264 259 256 254 250 244 246 255 261 271 274 262 252 249 237 231 231 232 237 242 239 238 240 239 238 243 246 246 241 233 230 233 239 246 251 253 253 254 253 252 251 251 252 254 257 258 258 259 258 258 259 259 258 257 255 252 254 264 275 285 289 293 296 295 298
253 251 255 255 246 245 247 244 244 249 253 256 255 250 248 246 245 245 247 250 250 246 245 248 249 246 246 252 257 264 268 262 255 251 243 239 241 247 256 254 246 243 240 236 236 238 239 240 237 233 234 238 244 248 249 249 250 251 251 249 248 248 250 252 255 257 256 255 257 259 257 254 251 250 250 251 253 261 272 279 282 286 288 288 292
248 248 252 252 243 236 234 231 232 236 239 242 244 243 243 241 236 236 242 247 248 247 248 253 257 252 247 249 253 258 263 262 256 254 253 250 249 253 259 255 248 243 238 233 230 227 228 229 230 233 237 239 241 242 243 245 249 250 248 245 244 244 246 247 248 249 247 246 250 255 251 243 237 237 243 251 254 258 267 273 275 279 280 280 285
246 247 250 248 241 237 235 233 235 235 234 234 236 237 239 240 241 243 249 253 254 254 258 265 265 253 247 252 253 255 264 267 262 256 256 255 253 253 254 250 247 243 236 228 223 219 222 225 226 230 233 234 236 240 244 246 247 247 243 240 240 240 240 240 242 244 245 243 241 241 239 236 234 238 244 249 254 259 263 265 266 271 274 277 283
248 249 252 249 241 238 240 241 242 239 236 235 236 239 243 250 254 256 258 256 254 256 261 266 265 255 251 255 256 258 265 268 263 257 253 252 250 249 248 247 247 243 231 222 219 221 223 225 228 232 234 237 240 243 245 245 244 242 238 237 238 239 236 236 238 240 243 245 242 236 237 239 240 243 247 250 254 255 255 257 260 262 267 275 282
249 250 253 252 245 240 241 245 244 241 240 240 241 245 252 260 264 266 268 265 260 258 259 260 259 257 255 253 253 257 260 263 262 254 247 244 243 244 246 248 248 244 235 227 225 226 227 231 237 240 242 243 242 241 242 244 244 239 235 236 238 238 236 234 236 236 236 239 241 239 240 243 243 246 249 250 251 251 251 252 253 257 265 273 277
247 249 251 254 252 246 245 245 245 244 244 245 248 251 256 262 266 268 272 272 267 263 264 260 252 253 256 252 251 254 257 260 259 252 244 240 240 243 247 248 246 243 239 234 231 233 236 240 244 246 247 247 245 242 241 243 242 237 235 237 239 240 239 237 237 237 237 239 241 241 243 247 250 251 250 249 250 253 254 251 250 256 265 273 275
245 248 249 252 253 251 249 248 247 247 247 249 252 256 261 267 272 272 272 272 269 268 272 266 253 254 260 256 252 256 261 262 256 249 244 238 239 244 246 245 243 239 237 235 235 239 242 245 248 250 251 251 249 246 242 241 238 234 234 237 241 243 243 242 241 240 241 243 244 246 248 251 254 254 253 252 255 258 258 254 253 258 265 270 273
245 247 248 250 251 251 251 250 249 249 250 253 256 258 262 266 269 272 274 276 274 273 277 273 262 260 265 265 262 262 266 263 251 242 238 234 234 240 241 241 239 235 235 238 240 243 246 248 251 251 252 252 248 244 241 238 233 230 231 235 240 243 244 245 245 244 245 247 247 249 250 253 256 258 259 258 259 262 262 260 259 261 265 269 273
248 247 248 249 249 250 250 249 250 251 252 255 258 260 261 263 266 271 274 276 275 273 276 276 268 263 265 268 266 261 263 261 240 226 225 230 235 238 239 239 236 232 235 240 244 245 246 247 248 248 249 248 245 241 238 234 230 228 229 233 240 245 248 250 250 249 250 250 250 252 253 255 258 260 261 261 261 264 266 266 267 267 268 269 273
252 250 249 250 250 250 249 249 251 252 255 258 261 262 264 265 268 272 274 275 275 273 273 274 269 265 266 268 263 255 252 250 231 219 223 236 242 241 242 240 235 233 235 239 244 244 242 242 244 246 246 244 241 237 233 230 227 228 231 236 243 248 252 254 254 254 254 255 255 256 257 258 260 262 264 265 266 268 270 271 271 271 271 270 271
257 256 255 254 254 253 252 252 253 255 257 260 263 265 267 268 270 272 273 274 275 275 273 272 268 264 261 257 254 250 245 241 234 226 229 239 245 246 245 241 235 233 235 239 243 241 239 239 242 243 242 239 236 231 228 227 228 231 236 241 246 250 253 256 256 256 257 258 259 260 261 261 262 265 266 268 270 270 271 272 271 272 274 272 272
257 259 259 259 259 258 258 258 259 261 262 263 265 266 268 269 271 271 271 273 276 275 272 267 265 263 257 250 249 249 245 239 234 229 231 239 245 246 244 242 238 236 237 240 241 240 239 239 241 241 237 234 231 230 231 232 235 239 243 247 251 253 254 256 257 257 258 260 262 263 264 264 265 266 267 267 268 268 269 270 271 272 274 275 274
254 256 257 259 260 261 263 263 265 266 266 267 268 268 269 269 268 268 269 271 273 272 270 266 264 262 256 249 246 246 245 238 229 227 236 245 249 248 245 243 243 242 240 239 240 242 243 242 243 243 239 235 233 234 237 240 244 248 251 255 258 258 259 259 259 259 258 259 261 262 263 265 266 266 267 266 267 268 269 270 271 273 275 276 276
251 253 255 256 257 258 260 262 264 266 267 268 268 268 269 268 268 269 270 270 270 269 266 263 263 261 252 244 241 241 242 236 229 232 242 247 249 249 248 246 246 246 243 241 243 245 244 242 243 244 242 240 238 239 242 245 248 251 255 259 260 261 261 261 261 261 260 259 259 260 261 263 264 266 267 267 268 269 270 272 274 275 276 277 277
249 252 255 255 255 255 256 258 262 265 268 269 268 269 269 268 271 272 271 270 269 265 259 256 256 249 237 235 241 243 241 236 237 244 247 246 246 246 248 249 250 247 244 244 246 246 243 242 244 246 246 245 243 243 245 248 249 251 255 259 259 258 258 258 258 259 260 257 256 257 258 260 262 265 267 267 267 268 270 272 273 273 274 274 275
248 251 253 254 255 255 255 258 260 263 268 269 270 271 270 270 272 273 268 257 246 244 245 247 246 235 224 230 240 241 241 241 241 244 247 249 249 246 248 252 250 246 245 246 247 247 245 245 247 248 249 249 248 248 249 250 250 250 253 257 259 258 257 256 255 255 254 253 252 254 256 260 263 264 264 263 264 266 268 269 270 271 272 273 274
249 251 252 253 255 256 258 260 261 263 266 268 269 270 272 274 272 264 253 235 222 224 228 227 224 221 221 232 235 233 236 239 239 243 250 257 252 244 247 252 249 247 248 250 249 248 248 249 251 253 254 253 252 254 257 258 254 250 250 255 258 259 257 256 254 252 251 251 253 255 257 260 262 261 260 261 262 263 265 266 268 269 270 271 271
252 253 253 253 255 257 260 262 263 264 266 268 269 269 271 274 266 249 234 224 220 221 213 204 213 226 235 240 238 234 232 234 239 246 252 256 254 249 252 254 251 251 252 252 252 252 253 253 255 256 257 256 254 255 258 260 258 252 249 251 255 257 258 257 255 254 253 254 255 257 259 260 259 258 258 259 260 262 265 267 268 268 268 268 268
253 254 254 255 257 258 260 262 263 265 267 269 271 270 271 273 264 253 242 223 214 213 200 192 206 219 222 223 230 235 236 238 243 248 251 253 253 253 256 256 253 254 254 253 255 255 254 253 254 255 254 253 253 254 255 258 257 251 246 247 252 257 259 260 257 255 255 256 257 259 260 260 259 259 260 261 263 266 267 268 268 268 268 269 269
254 254 254 255 257 259 261 262 262 263 265 269 271 272 275 276 271 265 263 246 217 210 210 208 209 211 212 217 227 235 239 241 244 246 247 249 249 249 252 251 249 250 252 254 255 253 249 250 253 254 252 250 249 252 255 257 256 250 244 244 250 256 259 260 258 257 257 258 259 261 261 261 262 264 265 266 267 268 269 270 271 271 271 271 271
255 254 253 254 257 260 262 262 261 260 263 266 270 272 276 278 277 274 273 272 254 228 220 220 220 222 225 228 229 232 236 242 244 241 237 239 242 243 243 243 243 246 250 251 248 245 245 248 251 251 251 251 250 253 256 257 254 248 244 244 249 255 258 260 261 260 260 260 261 261 261 262 264 266 268 269 271 273 274 276 276 276 275 274 274
254 254 254 255 257 259 261 262 262 259 260 264 267 269 272 274 274 275 277 279 278 264 242 229 226 229 232 232 231 232 237 242 242 233 226 227 233 235 235 237 240 243 244 242 239 240 243 248 250 252 254 256 255 256 258 259 254 248 245 246 251 255 259 262 263 263 263 262 262 262 262 265 267 270 272 274 276 278 279 279 278 278 277 277 278
254 254 255 256 257 258 260 263 263 260 258 260 262 264 265 265 265 268 272 274 272 269 257 238 225 227 231 232 231 231 232 232 227 220 216 218 223 227 230 233 237 240 242 242 243 245 247 249 252 254 256 256 256 254 255 256 253 247 246 249 253 257 260 263 264 265 265 263 263 265 268 271 273 275 278 279 280 280 280 280 280 280 280 281 281
255 257 257 256 256 257 260 265 267 265 260 257 256 256 257 259 260 261 263 264 261 258 255 249 242 238 235 230 224 221 220 218 213 213 215 217 219 224 229 234 240 244 247 248 249 250 250 251 252 253 253 254 254 252 250 251 251 251 252 255 258 261 263 264 265 266 267 267 267 269 273 276 276 277 278 278 278 278 278 279 280 280 281 281 281
257 260 260 259 257 256 257 260 263 264 263 260 257 255 254 255 258 259 258 257 255 255 256 255 257 259 257 253 247 239 233 229 226 226 228 227 227 229 233 241 247 249 249 250 250 251 252 252 252 252 252 252 252 252 252 253 254 256 258 261 264 266 267 266 265 266 267 269 269 270 272 274 276 276 276 276 275 276 277 279 279 279 279 280 281
262 264 267 268 267 264 261 259 258 258 258 257 256 257 259 258 256 255 255 255 255 255 256 257 258 260 261 261 261 258 255 251 247 244 243 242 240 237 235 237 241 245 248 251 252 253 254 254 253 252 252 252 252 253 255 257 258 259 262 264 266 267 267 266 265 266 267 269 270 271 272 272 273 274 274 275 276 277 278 279 280 280 281 281 282
266 268 269 268 267 265 264 263 264 262 256 248 243 243 248 253 255 254 254 255 257 257 257 258 261 262 263 263 263 263 261 258 254 251 249 249 248 246 242 238 239 243 249 253 255 255 255 255 253 252 252 253 256 258 259 260 261 263 264 266 267 267 268 268 268 269 270 271 272 274 274 274 274 274 275 276 277 278 279 280 281 282 283 283 283
260 261 260 257 255 255 255 258 261 262 260 253 243 236 236 242 248 251 252 254 258 260 261 261 263 264 266 267 266 265 265 263 260 256 253 250 249 249 247 245 245 248 251 253 255 254 254 254 254 254 254 255 259 261 262 261 262 263 265 266 267 268 268 269 269 270 271 271 272 273 274 274 275 276 276 278 278 280 281 282 283 283 284 284 285
249 250 250 249 247 247 248 250 252 254 255 255 251 246 244 245 246 246 245 246 251 257 263 266 267 267 267 269 269 269 267 266 265 262 257 254 252 251 250 250 250 251 252 253 253 254 255 256 256 257 257 257 259 262 263 264 266 267 268 269 269 269 269 269 269 270 270 272 273 274 276 276 277 278 280 281 282 283 283 284 285 285 285 286 286
239 240 241 242 242 242 244 245 247 248 249 250 251 251 251 251 251 250 248 247 247 251 256 259 262 264 266 266 266 266 265 265 264 261 257 253 252 251 250 250 251 252 254 254 254 254 254 255 256 257 257 257 260 263 265 267 268 270 270 271 272 272 272 272 273 273 273 275 276 277 278 280 281 282 283 284 285 285 286 286 286 286 286 286 286
235 237 239 240 241 241 242 242 244 245 246 246 247 248 248 249 249 251 252 252 252 254 255 255 256 258 262 262 262 261 261 261 259 256 252 248 246 245 243 243 244 248 252 254 255 255 255 256 257 259 259 259 261 263 265 266 267 268 269 270 271 272 273 274 275 276 277 278 279 280 282 282 283 284 285 285 286 286 286 286 286 286 286 286 286
242 243 243 244 245 246 245 244 244 244 245 245 245 245 245 245 246 247 249 251 252 253 254 255 254 254 256 258 258 257 256 256 255 253 249 246 244 244 245 245 246 248 251 254 255 256 257 258 259 261 262 262 262 264 265 267 268 270 271 272 273 274 275 276 277 278 279 280 281 281 282 282 283 284 285 285 285 285 286 286 286 286 286 285 285
Height
5781 5780 5779 5780 5781 5781 5782 5783 5785 5787 5788 5788 5787 5787 5788 5788 5788 5788 5788 5787 5786 5786 5785 5785 5786 5787 5787 5787 5787 5788 5789 5791 5792 5792 5793 5794 5794 5794 5796 5798 5800 5800 5802 5804 5806 5807 5809 5810 5811 5812 5812 5813 5813 5814 5814 5815 5815 5815 5816 5816 5817 5817 5818 5818 5818 5818 5818 5818 5819 5819 5819 5819 5820 5819 5819 5820 5820 5820 5821 5821 5821 5821 5821 5821 5821
5777 5779 5775 5776 5779 5778 5779 5781 5782 5784 5785 5784 5784 5784 5786 5786 5786 5786 5785 5785 5785 5784 5784 5784 5784 5785 5786 5786 5786 5787 5789 5790 5791 5791 5792 5793 5793 5793 5796 5799 5800 5800 5800 5802 5804 5806 5807 5809 5810 5811 5811 5812 5812 5813 5813 5814 5814 5815 5815 5815 5816 5817 5817 5817 5817 5818 5818 5818 5818 5818 5818 5819 5819 5819 5819 5819 5819 5820 5820 5821 5821 5821 5821 5820 5820
5770 5776 5775 5774 5776 5776 5777 5778 5779 5781 5782 5780 5780 5782 5783 5783 5783 5783 5782 5782 5782 5782 5782 5782 5783 5783 5784 5785 5785 5787 5788 5788 5789 5789 5791 5792 5791 5792 5795 5797 5799 5800 5800 5801 5803 5805 5806 5808 5809 5810 5810 5811 5811 5812 5812 5813 5813 5813 5814 5814 5815 5816 5816 5816 5817 5817 5818 5818 5818 5818 5818 5818 5818 5818 5818 5818 5819 5819 5819 5820 5820 5820 5820 5820 5820
5765 5770 5773 5772 5773 5774 5775 5775 5775 5777 5779 5777 5777 5779 5779 5778 5778 5779 5779 5779 5779 5779 5779 5780 5780 5781 5782 5783 5784 5785 5786 5786 5787 5788 5789 5790 5790 5792 5794 5796 5798 5798 5799 5801 5802 5803 5805 5806 5807 5808 5809 5809 5810 5810 5811 5812 5812 5812 5812 5813 5814 5815 5815 5816 5816 5816 5817 5817 5817 5817 5817 5817 5817 5817 5817 5817 5818 5818 5819 5819 5819 5819 5819 5819 5819
5763 5765 5769 5770 5769 5770 5771 5771 5772 5774 5776 5776 5775 5774 5771 5771 5774 5775 5776 5776 5777 5776 5777 5777 5777 5778 5780 5781 5782 5783 5783 5784 5785 5786 5787 5788 5789 5791 5793 5795 5796 5797 5798 5799 5801 5802 5803 5805 5805 5806 5807 5808 5808 5808 5809 5810 5810 5811 5811 5811 5812 5813 5814 5815 5815 5815 5816 5816 5816 5816 5816 5816 5816 5816 5817 5817 5817 5817 5818 5818 5818 5818 5818 5818 5818
5762 5761 5764 5767 5767 5767 5767 5768 5771 5772 5774 5775 5772 5768 5767 5770 5773 5774 5774 5775 5776 5775 5774 5775 5775 5776 5778 5779 5779 5780 5781 5782 5783 5784 5785 5786 5788 5790 5791 5793 5794 5795 5797 5798 5799 5800 5802 5803 5804 5804 5806 5806 5807 5807 5808 5809 5809 5809 5809 5809 5810 5812 5812 5813 5814 5814 5814 5814 5814 5815 5815 5815 5815 5816 5816 5816 5816 5816 5817 5817 5818 5817 5817 5817 5817
5760 5758 5760 5763 5764 5764 5764 5765 5768 5771 5771 5772 5770 5767 5769 5771 5773 5773 5773 5775 5775 5774 5773 5773 5774 5775 5775 5777 5777 5779 5780 5780 5781 5782 5783 5785 5786 5788 5789 5791 5793 5794 5796 5797 5798 5799 5800 5801 5802 5803 5804 5805 5806 5806 5807 5807 5808 5808 5808 5808 5809 5810 5811 5812 5813 5813 5813 5813 5813 5813 5814 5814 5814 5815 5815 5815 5816 5816 5816 5817 5817 5817 5817 5817 5817
5757 5756 5756 5759 5761 5761 5761 5762 5764 5765 5766 5766 5767 5769 5771 5770 5769 5769 5770 5772 5772 5772 5772 5772 5773 5774 5775 5776 5776 5777 5778 5779 5779 5781 5782 5783 5784 5786 5787 5789 5791 5793 5795 5796 5797 5798 5799 5800 5801 5802 5804 5805 5805 5805 5805 5806 5806 5807 5807 5807 5808 5809 5810 5810 5811 5811 5811 5812 5812 5812 5812 5813 5813 5814 5814 5814 5814 5815 5816 5816 5816 5816 5816 5816 5816
5754 5754 5754 5756 5759 5758 5758 5757 5757 5758 5760 5761 5763 5767 5770 5767 5766 5766 5766 5768 5770 5772 5772 5772 5773 5775 5775 5776 5776 5775 5776 5776 5777 5779 5781 5782 5783 5784 5786 5788 5790 5792 5793 5794 5795 5796 5798 5799 5800 5802 5803 5803 5804 5804 5804 5805 5805 5805 5806 5806 5806 5807 5808 5809 5810 5810 5810 5810 5811 5811 5811 5811 5812 5813 5813 5813 5813 5814 5815 5815 5815 5815 5815 5815 5815
5751 5750 5750 5753 5756 5757 5756 5753 5752 5754 5757 5759 5761 5764 5767 5766 5764 5763 5763 5766 5769 5770 5771 5771 5772 5774 5775 5775 5775 5774 5773 5774 5776 5778 5779 5780 5781 5783 5785 5787 5789 5790 5792 5793 5794 5795 5796 5798 5799 5800 5801 5802 5803 5803 5803 5804 5804 5804 5804 5805 5805 5806 5807 5808 5808 5808 5809 5809 5809 5810 5811 5811 5811 5811 5812 5812 5812 5813 5813 5814 5814 5814 5814 5814 5814
5748 5747 5747 5750 5753 5753 5751 5749 5749 5751 5754 5757 5757 5760 5763 5763 5762 5760 5760 5763 5767 5768 5768 5770 5770 5771 5772 5774 5774 5773 5772 5773 5775 5777 5778 5779 5780 5782 5783 5786 5788 5789 5790 5792 5792 5793 5795 5796 5798 5799 5800 5801 5802 5802 5802 5803 5803 5803 5804 5804 5804 5805 5806 5806 5807 5807 5807 5808 5808 5809 5810 5810 5810 5810 5811 5811 5811 5811 5812 5812 5812 5813 5813 5813 5813
5745 5746 5747 5749 5750 5749 5747 5746 5748 5749 5753 5754 5754 5757 5761 5760 5759 5758 5758 5761 5764 5764 5766 5768 5768 5768 5769 5771 5772 5771 5771 5772 5774 5775 5777 5778 5778 5780 5782 5784 5786 5787 5789 5790 5791 5791 5793 5794 5796 5797 5798 5800 5800 5800 5801 5801 5802 5802 5803 5803 5803 5803 5804 5805 5806 5806 5806 5806 5808 5809 5809 5808 5808 5809 5809 5809 5809 5810 5810 5811 5811 5811 5811 5811 5811
5745 5746 5747 5746 5746 5745 5744 5746 5748 5750 5751 5751 5751 5755 5756 5756 5756 5756 5757 5759 5761 5762 5763 5765 5766 5766 5767 5769 5770 5770 5770 5771 5772 5773 5775 5776 5777 5778 5780 5783 5785 5786 5787 5788 5788 5789 5790 5792 5794 5795 5796 5797 5798 5798 5799 5800 5800 5801 5801 5802 5802 5802 5802 5803 5804 5804 5805 5805 5806 5807 5807 5807 5807 5807 5808 5808 5808 5808 5809 5809 5810 5810 5810 5809 5810
5744 5745 5744 5743 5743 5743 5742 5744 5746 5746 5746 5747 5750 5750 5749 5751 5753 5754 5755 5757 5758 5760 5761 5763 5764 5764 5765 5766 5768 5768 5768 5769 5770 5772 5773 5774 5775 5776 5779 5781 5783 5784 5785 5785 5786 5787 5788 5790 5792 5793 5795 5795 5796 5796 5797 5798 5798 5799 5799 5800 5800 5801 5801 5801 5802 5803 5803 5804 5805 5805 5805 5806 5806 5806 5806 5806 5806 5807 5807 5808 5808 5808 5808 5808 5808
5740 5742 5743 5742 5743 5742 5740 5740 5742 5743 5742 5744 5748 5746 5745 5748 5751 5751 5753 5755 5756 5758 5759 5760 5761 5762 5763 5764 5765 5766 5767 5768 5768 5769 5770 5772 5773 5775 5777 5779 5780 5781 5782 5783 5784 5785 5787 5788 5790 5792 5793 5794 5794 5795 5795 5796 5797 5797 5798 5798 5798 5799 5800 5800 5800 5801 5801 5802 5803 5803 5803 5804 5804 5804 5805 5805 5805 5805 5806 5806 5806 5806 5807 5806 5807
5738 5739 5741 5741 5741 5741 5740 5738 5740 5741 5740 5743 5744 5742 5743 5747 5748 5749 5751 5752 5754 5756 5756 5758 5759 5760 5762 5762 5763 5765 5766 5767 5766 5766 5767 5770 5772 5774 5775 5776 5777 5778 5779 5781 5782 5783 5785 5787 5788 5790 5791 5792 5793 5794 5794 5795 5795 5796 5796 5797 5797 5797 5798 5799 5799 5800 5800 5800 5801 5802 5802 5802 5802 5802 5803 5803 5803 5803 5804 5804 5804 5805 5805 5805 5805
5735 5734 5735 5735 5735 5737 5738 5737 5738 5738 5738 5740 5741 5739 5741 5744 5745 5747 5750 5751 5752 5753 5754 5756 5757 5758 5760 5761 5762 5763 5764 5765 5764 5763 5765 5768 5770 5772 5773 5774 5775 5776 5777 5779 5780 5782 5783 5785 5787 5788 5789 5791 5792 5793 5793 5794 5794 5794 5794 5795 5795 5795 5796 5796 5797 5798 5799 5799 5800 5800 5800 5800 5800 5801 5801 5801 5802 5802 5802 5802 5803 5803 5803 5803 5804
5731 5730 5729 5729 5730 5732 5733 5733 5733 5734 5736 5739 5738 5735 5738 5741 5743 5745 5748 5749 5750 5751 5752 5753 5754 5757 5758 5759 5760 5761 5762 5763 5763 5762 5764 5767 5768 5770 5770 5771 5772 5774 5775 5777 5778 5780 5781 5783 5785 5786 5788 5789 5790 5791 5791 5792 5792 5792 5792 5793 5794 5794 5794 5794 5795 5796 5797 5797 5798 5798 5797 5798 5798 5799 5799 5800 5800 5801 5801 5801 5801 5801 5801 5802 5802
5728 5728 5728 5729 5730 5730 5730 5730 5730 5730 5732 5734 5733 5732 5735 5739 5742 5743 5744 5746 5747 5748 5749 5749 5751 5754 5755 5757 5758 5759 5760 5761 5761 5762 5763 5765 5766 5768 5769 5769 5770 5771 5773 5775 5776 5778 5779 5781 5782 5784 5785 5787 5788 5788 5789 5789 5790 5790 5791 5791 5791 5792 5792 5792 5793 5794 5794 5795 5795 5795 5795 5795 5796 5796 5797 5798 5799 5799 5799 5799 5800 5799 5800 5800 5801
5727 5727 5728 5729 5730 5730 5731 5731 5731 5730 5729 5730 5730 5731 5734 5738 5741 5741 5740 5741 5742 5743 5744 5745 5747 5750 5752 5754 5755 5756 5757 5757 5759 5760 5762 5764 5765 5766 5767 5767 5768 5770 5771 5773 5774 5776 5777 5778 5780 5781 5783 5784 5785 5786 5787 5787 5788 5788 5788 5788 5789 5790 5790 5791 5791 5791 5792 5792 5793 5793 5793 5793 5794 5795 5795 5796 5797 5797 5797 5798 5798 5798 5798 5799 5799
5726 5727 5727 5728 5729 5730 5731 5731 5732 5732 5731 5731 5731 5731 5732 5735 5736 5736 5736 5737 5738 5740 5741 5743 5745 5747 5750 5751 5752 5754 5754 5755 5757 5758 5760 5762 5763 5764 5765 5766 5767 5769 5770 5771 5772 5773 5774 5776 5777 5779 5780 5781 5782 5783 5784 5785 5785 5785 5786 5786 5786 5787 5788 5789 5789 5790 5790 5790 5790 5791 5791 5792 5793 5794 5794 5794 5795 5795 5796 5796 5796 5796 5797 5797 5798
5725 5725 5726 5727 5728 5729 5730 5731 5731 5732 5732 5731 5731 5729 5728 5729 5731 5732 5734 5735 5737 5740 5741 5742 5744 5745 5747 5749 5750 5751 5753 5754 5755 5756 5758 5759 5761 5762 5763 5764 5765 5767 5768 5769 5769 5770 5772 5773 5775 5776 5777 5778 5780 5781 5782 5783 5783 5783 5783 5784 5784 5785 5786 5787 5787 5787 5788 5788 5788 5789 5789 5790 5791 5792 5793 5793 5793 5793 5794 5794 5794 5794 5795 5795 5796
5723 5724 5725 5726 5727 5727 5728 5729 5730 5730 5730 5730 5729 5725 5724 5727 5729 5731 5734 5735 5737 5740 5741 5741 5743 5743 5744 5746 5747 5749 5750 5752 5753 5755 5756 5757 5758 5759 5760 5762 5763 5765 5766 5766 5767 5768 5769 5771 5772 5773 5775 5776 5777 5778 5779 5780 5780 5780 5781 5782 5782 5783 5784 5785 5785 5785 5785 5785 5786 5787 5788 5788 5789 5790 5791 5791 5791 5791 5792 5792 5792 5793 5793 5793 5794
5721 5722 5723 5724 5725 5726 5727 5727 5728 5728 5728 5728 5726 5724 5725 5729 5730 5731 5733 5735 5736 5738 5739 5739 5740 5741 5742 5742 5744 5746 5748 5749 5751 5752 5753 5754 5756 5757 5758 5760 5761 5763 5764 5764 5765 5766 5767 5769 5770 5771 5772 5773 5775 5776 5776 5777 5778 5778 5779 5780 5781 5782 5782 5783 5783 5784 5784 5784 5784 5786 5786 5786 5787 5788 5788 5789 5789 5789 5790 5790 5791 5790 5790 5791 5791
5720 5720 5721 5722 5723 5724 5724 5725 5725 5725 5725 5725 5724 5723 5724 5727 5728 5729 5732 5733 5733 5734 5736 5737 5738 5739 5740 5740 5741 5743 5745 5747 5748 5750 5751 5752 5754 5755 5756 5758 5760 5761 5761 5762 5763 5764 5765 5767 5768 5768 5770 5771 5772 5773 5774 5775 5775 5776 5777 5778 5779 5780 5780 5781 5782 5782 5782 5782 5783 5784 5784 5784 5785 5786 5786 5787 5787 5787 5788 5789 5789 5788 5788 5788 5789
5717 5718 5719 5720 5721 5722 5722 5723 5723 5723 5722 5721 5721 5722 5723 5724 5726 5728 5730 5729 5729 5730 5733 5735 5736 5737 5738 5738 5739 5741 5743 5744 5745 5747 5749 5750 5752 5753 5755 5756 5757 5758 5759 5759 5760 5762 5763 5764 5765 5766 5767 5768 5769 5770 5771 5772 5773 5774 5775 5776 5777 5778 5778 5779 5780 5780 5781 5781 5781 5782 5782 5783 5783 5783 5784 5785 5785 5785 5785 5786 5786 5786 5786 5786 5787
5715 5716 5717 5718 5718 5719 5719 5720 5720 5720 5719 5718 5718 5721 5723 5724 5725 5726 5726 5726 5725 5727 5730 5732 5733 5734 5735 5736 5737 5738 5740 5740 5741 5744 5746 5748 5750 5751 5752 5754 5754 5755 5756 5756 5758 5759 5760 5762 5763 5764 5764 5765 5766 5767 5768 5769 5770 5771 5773 5774 5774 5775 5776 5776 5777 5778 5778 5779 5779 5779 5780 5781 5781 5781 5782 5783 5783 5782 5783 5784 5784 5784 5784 5784 5784
5713 5714 5714 5715 5716 5716 5716 5717 5717 5717 5716 5715 5716 5719 5722 5723 5724 5724 5724 5724 5723 5724 5726 5728 5728 5730 5732 5733 5734 5736 5737 5737 5738 5741 5744 5746 5748 5749 5750 5751 5751 5752 5753 5754 5755 5756 5757 5759 5760 5761 5762 5763 5763 5764 5765 5766 5768 5769 5770 5771 5772 5772 5773 5774 5774 5775 5776 5776 5776 5777 5778 5778 5778 5778 5779 5780 5780 5780 5780 5781 5781 5781 5781 5782 5782
5711 5711 5712 5712 5713 5713 5714 5714 5714 5714 5714 5713 5714 5717 5719 5721 5722 5723 5722 5722 5720 5721 5722 5724 5725 5727 5729 5730 5731 5732 5734 5736 5737 5739 5741 5743 5745 5746 5747 5748 5749 5750 5751 5751 5752 5753 5755 5756 5757 5759 5761 5760 5760 5761 5762 5764 5766 5767 5767 5768 5769 5769 5770 5771 5772 5773 5773 5773 5774 5775 5776 5776 5776 5776 5777 5777 5777 5777 5777 5778 5779 5778 5779 5779 5778
5708 5709 5709 5709 5710 5710 5711 5711 5712 5711 5711 5711 5711 5713 5716 5718 5720 5720 5719 5719 5718 5718 5719 5721 5722 5724 5725 5726 5727 5729 5731 5733 5735 5737 5739 5740 5742 5743 5744 5745 5746 5747 5748 5749 5750 5751 5753 5754 5756 5757 5758 5758 5758 5759 5760 5762 5763 5764 5765 5765 5766 5766 5767 5768 5769 5770 5770 5770 5771 5772 5773 5774 5773 5773 5774 5774 5774 5774 5775 5775 5775 5775 5775 5776 5775
5706 5706 5706 5706 5707 5707 5708 5708 5709 5709 5708 5708 5709 5710 5712 5714 5716 5716 5715 5715 5715 5715 5717 5718 5719 5720 5721 5723 5725 5726 5727 5730 5732 5734 5736 5737 5738 5740 5741 5742 5743 5743 5745 5746 5747 5748 5750 5753 5754 5755 5756 5757 5757 5758 5758 5759 5760 5761 5762 5763 5763 5764 5764 5765 5766 5767 5767 5767 5768 5769 5770 5770 5770 5771 5771 5771 5771 5772 5772 5772 5772 5771 5771 5772 5772
5704 5704 5704 5704 5704 5705 5705 5706 5706 5706 5705 5705 5705 5706 5708 5710 5710 5710 5711 5712 5712 5712 5713 5714 5715 5716 5717 5719 5722 5724 5725 5726 5728 5731 5733 5734 5736 5737 5737 5738 5739 5740 5742 5743 5744 5746 5749 5751 5752 5752 5753 5754 5755 5755 5756 5757 5757 5758 5759 5759 5760 5761 5762 5762 5763 5764 5764 5764 5765 5766 5766 5767 5767 5767 5768 5768 5768 5768 5768 5768 5768 5768 5768 5768 5768
5702 5702 5702 5702 5702 5703 5703 5703 5703 5703 5702 5702 5702 5703 5704 5705 5705 5706 5706 5708 5708 5709 5710 5710 5711 5712 5713 5715 5718 5721 5722 5723 5725 5728 5730 5731 5733 5734 5734 5735 5736 5737 5739 5740 5741 5744 5746 5747 5747 5748 5750 5751 5751 5752 5752 5753 5754 5755 5755 5756 5756 5757 5758 5759 5759 5760 5760 5761 5762 5762 5763 5763 5763 5763 5764 5765 5765 5765 5765 5765 5765 5765 5764 5764 5764
5699 5700 5700 5700 5700 5700 5701 5701 5701 5700 5699 5699 5699 5700 5701 5702 5702 5701 5702 5703 5702 5701 5703 5705 5706 5709 5711 5712 5715 5717 5718 5720 5722 5725 5727 5728 5729 5730 5731 5732 5733 5734 5735 5737 5739 5741 5742 5742 5743 5745 5746 5747 5747 5748 5749 5750 5751 5751 5752 5752 5753 5754 5754 5754 5755 5756 5756 5757 5758 5758 5758 5759 5760 5760 5761 5761 5761 5760 5761 5761 5760 5760 5760 5760 5760
5697 5697 5697 5698 5698 5698 5698 5698 5698 5698 5697 5696 5696 5697 5698 5699 5699 5698 5699 5700 5698 5694 5697 5700 5702 5705 5709 5710 5712 5714 5715 5717 5719 5721 5722 5724 5725 5727 5728 5729 5730 5731 5732 5733 5735 5736 5737 5738 5740 5741 5742 5743 5744 5744 5745 5746 5748 5748 5749 5749 5750 5751 5751 5751 5752 5753 5752 5753 5754 5754 5755 5755 5756 5757 5757 5757 5756 5756 5756 5756 5756 5756 5756 5756 5756
5694 5694 5695 5695 5695 5695 5695 5695 5695 5695 5695 5695 5694 5695 5695 5696 5697 5696 5696 5698 5697 5694 5695 5698 5700 5702 5705 5708 5710 5712 5714 5716 5717 5718 5719 5721 5722 5723 5725 5725 5726 5727 5729 5730 5731 5732 5733 5735 5736 5737 5738 5739 5740 5741 5742 5743 5744 5744 5745 5746 5747 5747 5747 5748 5748 5748 5748 5749 5750 5751 5752 5752 5753 5753 5753 5753 5752 5752 5752 5752 5752 5751 5751 5751 5751
5692 5692 5692 5693 5693 5693 5693 5692 5692 5693 5693 5692 5692 5693 5693 5694 5695 5695 5694 5693 5693 5693 5694 5695 5697 5700 5703 5705 5708 5710 5712 5713 5714 5715 5716 5718 5719 5720 5721 5722 5723 5724 5725 5727 5728 5729 5730 5731 5732 5733 5734 5734 5735 5737 5737 5738 5739 5740 5741 5742 5743 5743 5743 5744 5745 5745 5745 5746 5747 5747 5748 5748 5749 5749 5749 5749 5749 5748 5748 5748 5747 5747 5746 5745 5745
5689 5690 5690 5690 5690 5690 5690 5690 5690 5690 5690 5690 5690 5690 5691 5691 5692 5692 5691 5691 5691 5692 5693 5693 5694 5697 5701 5703 5705 5706 5708 5710 5711 5712 5714 5715 5716 5717 5718 5719 5720 5721 5722 5723 5724 5725 5726 5727 5728 5729 5729 5729 5731 5732 5733 5733 5734 5735 5736 5738 5738 5739 5740 5740 5740 5741 5742 5742 5743 5743 5743 5744 5745 5745 5745 5745 5745 5744 5743 5743 5742 5742 5741 5740 5739
5686 5687 5688 5688 5688 5687 5687 5687 5687 5687 5687 5687 5687 5687 5687 5688 5689 5689 5689 5689 5689 5689 5690 5691 5693 5695 5697 5699 5701 5703 5705 5706 5708 5709 5710 5711 5713 5714 5715 5715 5716 5717 5718 5719 5720 5721 5722 5722 5723 5724 5724 5725 5726 5727 5728 5729 5729 5730 5732 5733 5734 5735 5736 5736 5736 5736 5738 5738 5738 5739 5740 5740 5741 5741 5740 5740 5740 5739 5738 5738 5737 5736 5735 5735 5735
5683 5684 5684 5685 5685 5685 5684 5684 5684 5684 5684 5684 5684 5684 5684 5685 5685 5686 5686 5687 5687 5686 5687 5689 5691 5693 5694 5696 5698 5700 5701 5702 5703 5704 5705 5707 5709 5711 5711 5711 5712 5713 5714 5715 5716 5717 5717 5718 5719 5720 5720 5721 5722 5723 5724 5724 5725 5727 5728 5729 5730 5731 5731 5731 5731 5732 5734 5735 5734 5735 5736 5736 5735 5735 5734 5734 5734 5733 5732 5732 5732 5731 5730 5730 5729
5679 5680 5681 5681 5682 5682 5681 5681 5682 5682 5682 5682 5682 5682 5682 5682 5682 5683 5683 5684 5684 5684 5685 5686 5687 5689 5691 5692 5694 5696 5698 5699 5700 5701 5701 5702 5704 5706 5706 5707 5708 5709 5710 5711 5712 5713 5714 5714 5715 5716 5717 5717 5718 5719 5720 5721 5722 5723 5724 5725 5726 5727 5727 5727 5726 5727 5730 5731 5730 5730 5731 5730 5730 5729 5729 5729 5728 5727 5727 5726 5725 5725 5724 5724 5724
5676 5676 5677 5678 5679 5679 5679 5679 5679 5679 5680 5680 5680 5679 5680 5680 5680 5681 5681 5682 5683 5683 5684 5684 5685 5686 5687 5689 5690 5692 5693 5695 5696 5697 5697 5698 5698 5700 5701 5702 5704 5705 5706 5707 5708 5709 5710 5710 5711 5712 5712 5713 5714 5715 5716 5717 5718 5719 5720 5721 5721 5722 5723 5723 5722 5722 5724 5726 5727 5726 5726 5726 5725 5724 5724 5723 5723 5722 5721 5720 5719 5719 5718 5718 5717
5672 5673 5674 5675 5675 5676 5676 5676 5676 5677 5677 5677 5678 5677 5678 5678 5678 5679 5680 5680 5681 5682 5682 5683 5683 5684 5685 5687 5688 5688 5689 5690 5691 5692 5692 5693 5694 5695 5696 5698 5699 5701 5702 5703 5704 5705 5706 5706 5707 5708 5708 5709 5710 5711 5712 5713 5714 5715 5716 5716 5717 5717 5718 5719 5719 5718 5719 5721 5722 5721 5720 5720 5719 5719 5718 5718 5717 5716 5715 5714 5713 5713 5712 5712 5711
5669 5669 5670 5671 5671 5672 5673 5674 5674 5674 5674 5674 5675 5675 5675 5676 5676 5677 5677 5678 5679 5679 5680 5680 5681 5682 5683 5684 5685 5686 5687 5687 5688 5688 5688 5689 5690 5691 5693 5695 5696 5697 5698 5699 5700 5701 5701 5702 5703 5704 5705 5705 5707 5708 5708 5709 5710 5711 5711 5712 5712 5713 5713 5714 5714 5714 5714 5715 5715 5715 5714 5714 5713 5713 5712 5712 5711 5710 5709 5709 5708 5707 5706 5705 5705
5665 5666 5666 5667 5667 5668 5669 5670 5670 5671 5671 5671 5672 5672 5673 5673 5674 5674 5675 5675 5676 5676 5677 5677 5678 5679 5680 5681 5682 5683 5684 5684 5685 5685 5686 5686 5687 5689 5690 5691 5692 5693 5694 5695 5695 5697 5698 5698 5699 5700 5701 5702 5703 5704 5704 5704 5705 5706 5707 5707 5708 5708 5709 5709 5709 5709 5709 5709 5708 5708 5708 5708 5707 5707 5707 5706 5705 5704 5703 5702 5701 5700 5699 5698 5697
5662 5663 5663 5664 5664 5665 5665 5666 5666 5667 5668 5668 5669 5670 5670 5670 5670 5671 5671 5672 5672 5673 5674 5674 5675 5675 5676 5678 5678 5679 5680 5681 5682 5682 5683 5684 5684 5685 5686 5687 5688 5689 5690 5691 5692 5693 5694 5695 5696 5696 5698 5699 5700 5699 5698 5699 5700 5701 5701 5702 5703 5703 5704 5704 5704 5703 5703 5703 5702 5702 5702 5702 5702 5701 5701 5700 5698 5697 5696 5695 5694 5692 5691 5690 5688
5659 5660 5660 5661 5661 5662 5662 5662 5662 5663 5664 5664 5665 5666 5666 5667 5667 5668 5669 5669 5669 5669 5670 5671 5671 5672 5673 5674 5675 5676 5677 5677 5678 5679 5679 5680 5680 5681 5682 5683 5684 5685 5686 5687 5688 5689 5689 5691 5691 5692 5694 5696 5695 5692 5693 5695 5696 5696 5696 5697 5697 5697 5697 5698 5698 5697 5697 5697 5696 5695 5695 5695 5695 5694 5694 5692 5691 5690 5689 5687 5686 5684 5683 5681 5680
5656 5656 5657 5657 5657 5658 5658 5658 5659 5659 5660 5660 5661 5662 5662 5663 5663 5664 5665 5666 5666 5666 5666 5667 5668 5668 5669 5670 5671 5672 5672 5673 5674 5675 5676 5676 5676 5677 5678 5679 5680 5681 5682 5683 5683 5684 5685 5687 5686 5687 5690 5691 5689 5687 5688 5689 5689 5690 5690 5690 5690 5691 5691 5691 5691 5691 5691 5690 5689 5689 5688 5688 5687 5686 5686 5684 5683 5682 5681 5680 5678 5676 5674 5672 5671
5651 5652 5652 5653 5653 5653 5654 5654 5654 5655 5656 5656 5657 5657 5658 5659 5659 5660 5661 5662 5662 5663 5663 5664 5664 5664 5665 5666 5667 5668 5668 5669 5670 5671 5672 5672 5672 5673 5674 5674 5675 5676 5677 5677 5678 5679 5681 5681 5680 5681 5684 5685 5683 5682 5683 5683 5683 5684 5684 5684 5684 5684 5684 5684 5684 5683 5683 5683 5682 5682 5681 5680 5679 5679 5678 5677 5675 5674 5673 5671 5669 5668 5666 5663 5661
5647 5647 5648 5648 5649 5649 5650 5650 5650 5651 5651 5652 5653 5653 5653 5654 5655 5656 5656 5657 5657 5658 5659 5659 5660 5660 5660 5661 5662 5663 5664 5665 5666 5666 5668 5668 5668 5669 5669 5670 5670 5671 5671 5672 5672 5673 5675 5676 5675 5676 5679 5679 5678 5677 5678 5678 5678 5678 5678 5678 5678 5678 5678 5677 5677 5676 5676 5676 5676 5675 5674 5673 5672 5671 5670 5669 5667 5666 5664 5662 5660 5658 5656 5654 5651
5643 5643 5643 5644 5644 5645 5645 5645 5646 5647 5647 5648 5648 5648 5649 5649 5650 5651 5651 5652 5652 5653 5653 5654 5654 5655 5655 5656 5657 5658 5659 5660 5661 5661 5663 5663 5664 5664 5665 5665 5665 5666 5666 5666 5667 5668 5669 5670 5670 5670 5671 5672 5672 5672 5672 5672 5672 5672 5672 5672 5672 5672 5671 5671 5670 5670 5670 5670 5669 5668 5667 5666 5665 5664 5663 5661 5660 5658 5656 5654 5652 5649 5647 5645 5642